Flag for U.S.A. Weather past 2 weeks in Pasco, Washington, U.S.A.

Now
89 °F

Sunny.


Feels Like: 87 °F
Forecast: 67 / 105 °F
Wind: 5 mph from North

Location: Tri-Cities Airport

Current Time: Jul 3, 2015 at 10:25:52 AM

Latest Report: Jul 3, 2015 at 9:53 AM


Visibility: 10 mi

Pressure: 29.83 "Hg

Humidity: 31%

Dew point: 55 °F

Location of PascoLocation

Historic Weather in Pasco — Graph

°F

Pasco temperature yesterday

Maximum temperature yesterday: 105 °F (at 5:53 PM)
Minimum temperature yesterday: 62 °F (at 4:53 AM)
Average temperature yesterday: 85 °F

Past Weeks' High & Low Weather Summary

 TemperatureHumidityPressure
High110 °F (Jun 27, 3:53 PM)90% (Jul 2, 4:53 AM)30.08 "Hg (Jul 2, 4:53 AM)
Low54 °F (Jun 20, 2:53 AM)12% (Jun 27, 4:53 PM)29.65 "Hg (Jun 28, 6:53 PM)
Average81 °F40%29.89 "Hg
* Reported Jun 18 8:53 AM — Jul 3 8:53 AM, Pasco, Weather by CustomWeather, © 2015

Note: Actual official high and low records may vary slightly from our data, if they occured in-between our weather recording intervals... More about our weather records

Advertising

Pasco weather history for previous 24 hours

 ConditionsComfort  
Time TempWeatherWind HumidityBarometerVisibility
8:53 AM
Fri, Jul 3
85 °FSunny.3 mph31%29.83 "Hg10 mi
7:53 AM79 °FSunny.No wind47%29.83 "Hg10 mi
6:53 AM74 °FSunny.3 mph52%29.83 "Hg10 mi
5:53 AM64 °FClear.3 mph87%29.83 "Hg10 mi
4:53 AM66 °FClear.No wind78%29.82 "Hg10 mi
3:53 AM69 °FClear.5 mph68%29.81 "Hg10 mi
2:53 AM68 °FClear.3 mph78%29.80 "Hg10 mi
1:53 AM72 °FClear.3 mph66%29.80 "Hg10 mi
12:53 AM75 °FClear.7 mph64%29.79 "Hg10 mi
11:53 PM
Thu, Jul 2
75 °FClear.8 mph71%29.77 "Hg10 mi
10:53 PM76 °FClear.3 mph72%29.76 "Hg10 mi
9:53 PM79 °FClear.3 mph65%29.76 "Hg10 mi
8:53 PM90 °FSunny.No wind34%29.76 "Hg10 mi
7:53 PM101 °FSunny.5 mph15%29.76 "Hg10 mi
6:53 PM104 °FSunny.8 mph12%29.76 "Hg10 mi
5:53 PM105 °FSunny.10 mph14%29.78 "Hg10 mi
4:53 PM104 °FSunny.5 mph16%29.80 "Hg10 mi
3:53 PM103 °FSunny.6 mph16%29.82 "Hg10 mi
2:53 PM102 °FSunny.8 mph17%29.85 "Hg10 mi
1:53 PM100 °FSunny.7 mph22%29.87 "Hg10 mi
12:53 PM96 °FSunny.3 mph25%29.89 "Hg10 mi
11:53 AM94 °FSunny.5 mph26%29.91 "Hg10 mi
10:53 AM91 °FSunny.7 mph30%29.91 "Hg10 mi
Weather by CustomWeather, © 2015

See weather overviewHow to use our weather pages